Printer-friendly version

IAU Minor Planet Center

Minor Planet Center

MPEC 2002-G47 : 1999 XO35

The following Minor Planet Electronic Circular may be linked-to from your own Web pages, but must not otherwise be redistributed electronically.


Read MPEC 2002-G46 Read MPEC 2002-G48


M.P.E.C. 2002-G47                                Issued 2002 Apr. 11, 17:14 UT

     The Minor Planet Electronic Circulars contain information on unusual
         minor planets and routine data on comets.  They are published
   on behalf of Commission 20 of the International Astronomical Union by the
          Minor Planet Center, Smithsonian Astrophysical Observatory,
                          Cambridge, MA 02138, U.S.A.

             Prepared using the Tamkin Foundation Computer Network

                              MPC@CFA.HARVARD.EDU
          URL http://cfa-www.harvard.edu/iau/mpc.html  ISSN 1523-6714

                                   1999 XO35

                           Revision to MPEC 1999-X15

Observations:
     J99X35O 7C2002 04 08.33480 14 48 56.22 +06 06 49.7                      696
     J99X35O 7C2002 04 08.34261 14 48 55.99 +06 06 51.9                      696
     J99X35O  C2002 04 10.09167 14 47 35.65 +06 15 10.8                      493
     J99X35O  C2002 04 10.09544 14 47 35.46 +06 15 11.8          22.2 V      493
     J99X35O  C2002 04 10.09888 14 47 35.32 +06 15 12.3                      493

Observer details:
493 Calar Alto.  Observers DANEOPS Team (M. Busch, F. Hormuth, R. Kresken).
    Measurers A. Doppler, A. Gnadig.  1.52-m reflector + CCD.
696 Whipple Observatory, Mt. Hopkins.  Observers M. Calkins, T. B. Spahr.
    1.2-m reflector + CCD.

First and last observations above in comparison with prediction:
Residuals in seconds of arc, reference and Delta-T
020408 696  8.8+  5.3-    020410 493 10.2+  7.2-    MPC 38836   -0.038 day

Orbital elements:
1999 XO35
Epoch 2002 May 6.0 TT = JDT 2452400.5                   MPC
M 232.03438              (2000.0)            P               Q
n   0.24477205     Peri.  292.32521     +0.90696197     -0.23841399
a   2.5310156      Node    82.87824     +0.37602609     +0.82976186
e   0.5721547      Incl.   20.48391     -0.18980086     +0.50463256
P   4.03           H   16.9           G   0.15           U   2
Residuals in seconds of arc
991206 704  0.6-  0.3+    991208 151  1.1+  0.1-    991221 670  0.8-  0.5+
991206 704  0.9-  0.1+    991208 151  1.7+  1.9-    991221 670  0.5-  0.0
991206 704  0.2-  0.2+    991208 118  0.5+  0.1+    991221 670  0.1+  0.2+
991206 704  0.5-  0.2+    991208 118  0.1+  0.2+    991224 670  0.0   0.4-
991206 704  0.4-  0.1-    991208 118  0.2+  0.2+    991224 670  0.0   0.2-
991206 595  0.0   0.7+    991209 675  0.0   0.4+    991224 670  0.1+  0.4-
991206 595  0.2-  0.7+    991209 675  0.1+  0.4+    991224 348  0.2-  0.0
991207 946  0.1+  0.9-    991209 675  0.2+  0.3+    991224 348  0.7-  0.4-
991207 946  0.4+  1.0-    991209 294 (0.4+  4.1-)   991227 402  0.0   0.2-
991207 946  1.0+  1.0-    991209 713 (3.0-  3.8+)   991227 402  0.1+  0.4-
991207 719  0.1-  0.1+    991209 713 (1.9-  3.6+)   991227 402  0.0   0.3-
991207 719  0.4-  0.1+    991209 294  0.3+  0.6+    991229 360  0.2+  0.2-
991207 704  0.0   0.2+    991209 713 (1.3-  3.4+)   991229 360  0.0   0.1+
991207 704  0.1+  0.2+    991209 713 (1.7-  3.7+)   991229 360  0.3+  0.2-
991207 704  0.0   0.0     991209 294  0.7-  0.5+    991229 348  0.3-  0.3-
991207 704  0.7+  0.9+    991209 670  0.1-  0.3-    991229 348  0.1-  0.2-
991207 704  0.0   0.3+    991209 670  0.2-  0.3-    991230 610  0.3+  0.8+
991207 658  0.2-  0.0     991209 046  0.1-  0.3+    991230 610  0.2+  0.5+
991207 658  0.2-  0.1+    991209 046  0.1-  0.3+    991230 610  0.2+  0.1+
991207 658  0.2-  0.0     991209 046  0.0   0.3+    991230 610  0.2+  0.1-
991207 402  0.1+  0.0     991209 046  0.2-  0.1+    991230 610  0.1+  0.4-
991207 402  0.3+  0.4+    991210 726  0.4-  0.1-    991231 106  0.2-  0.0
991207 402  0.2-  0.5-    991210 726  0.5-  0.2-    991231 106  0.4+  0.0
991207 402  0.0   0.1+    991210 726  0.5-  0.2-    991231 106  0.5-  0.1+
991207 360  0.0   0.0     991210 726  0.3-  0.6-    000102 704  0.2-  0.3+
991207 360  0.0   0.1+    991210 726  0.5-  0.3-    000102 704  0.6-  1.3+
991207 360  0.1-  0.1-    991210 726  0.2-  0.2-    000102 704  0.6+  0.5+
991207 046  0.7-  0.2-    991210 355  0.4+  0.8+    000102 704  0.4+  0.7+
991207 046  0.4+  0.1+    991210 355  0.2-  0.2+    000102 610  0.7-  0.6-
991207 046  0.5-  0.1-    991210 355  0.3-  0.0     000102 610  0.6-  0.6-
991207 046  0.9+  0.1+    991211 750  0.3-  0.0     000102 610  0.5-  0.4-
991207 595  0.1-  0.4+    991211 750  0.5-  0.3+    000102 610  0.3-  0.3-
991207 595  0.2+  0.5+    991211 750  0.4-  0.2+    000102 610  0.2-  0.2-
991207 595  0.3+  0.8+    991211 670  0.1-  0.5+    000103 670  0.0   0.2-
991207 610  0.9+  1.5-    991211 670  0.4-  0.6+    000103 670  0.5-  0.3+
991207 610  0.9+  1.2-    991211 118  0.2-  0.3+    000103 670  0.7+  0.2-
991207 610  0.9+  0.2-    991211 118  0.1-  0.4+    000104 610  0.2-  0.5+
991207 610  0.8+  0.1+    991211 118  0.4-  0.3+    000104 610  0.2-  0.4+
991207 610  1.0+  0.4+    991212 670  0.2-  0.1-    000104 610  0.3-  0.4+
991207 587  0.5-  1.1-    991212 670  0.0   0.2-    000104 610  0.4-  0.4+
991207 587  0.4-  0.2-    991212 670  0.1-  0.0     000104 610  0.5-  0.4+
991208 468  0.1+  0.2-    991213 670  0.4+  0.2+    000106 118  0.3+  0.4-
991208 468  0.2-  1.0-    991213 670  0.3+  0.3+    000106 118  0.1+  0.2-
991208 106  0.0   0.1+    991213 670  0.7+  0.0     000106 610  1.6+  0.6-
991208 106  0.1-  0.4-    991213 118  0.3-  0.1+    000106 610  0.9+  0.4-
991208 106  0.0   0.1+    991213 118  0.1-  0.2+    000106 610  0.4+  0.1-
991208 652  0.1-  0.7+    991213 118  0.2-  0.3+    000106 610  0.3-  0.1+
991208 652 (2.1+  6.2-)   991214 670  0.2-  0.3+    000106 610  0.8-  0.3+
991208 739  0.1+  0.0     991214 670  0.2+  0.4+    000108 402  0.0   0.0
991208 739  0.1+  0.0     991215 355  0.0   0.0     000108 402  0.5+  0.1+
991208 739  0.1+  0.3+    991215 355  0.0   0.3-    000108 402  0.2+  0.1+
991208 704  0.0   0.1-    991215 355  0.4-  0.1+    000110 360  0.3+  0.2+
991208 670  0.1-  0.1+    991216 402  0.0   0.0     000110 360  0.3+  0.3+
991208 704  0.1-  0.2-    991216 402  0.1-  0.1-    000110 360  0.0   0.5+
991208 704  0.0   0.2-    991216 402  0.2-  0.2-    000123 595  0.3+  0.2-
991208 704  0.4-  0.3-    991216 348  0.0   0.2-    000123 595  0.9-  0.2-
991208 704  0.1-  0.3-    991216 348  0.2+  0.5-    000123 595  0.0   0.0
991208 670  0.3-  0.4+    991217 118  0.2-  0.0     000124 658  0.4-  0.1+
991208 704  0.6-  0.5-    991217 118  0.5+  0.1-    000124 658  0.3-  0.0
991208 704  0.0   0.4-    991217 118  0.0   0.1+    000124 658  0.2+  0.2+
991208 704  0.1-  0.3+    991217 670  0.3-  0.0     000202 360  0.1+  0.0
991208 675  0.3-  0.0     991217 670  0.5+  0.1-    000202 360  0.1-  0.1-
991208 704  0.5-  0.1+    991217 610  1.3+  0.2+    000202 360  0.3-  0.4-
991208 675  0.3-  0.0     991217 610  1.0+  0.1+    020408 696  1.2-  0.9+
991208 670  0.4+  0.1-    991217 610  0.9+  0.1-    020408 696  0.8+  0.8+
991208 670  0.1-  0.2-    991217 610  0.7+  0.3-    020410 493  0.1+  0.5-
991208 151  0.5-  0.4-    991217 610  0.5+  0.4-    020410 493  0.1-  0.5-
991208 151  0.8+  0.1+    991219 670  0.5-  1.3-    020410 493  0.3+  1.0-
991208 151  0.1+  0.3-    991219 900  0.6-  0.1-
991208 151  0.4-  1.0+    991219 900  0.1-  0.2-

Ephemeris:
1999 XO35                a,e,i = 2.53, 0.57, 20                  q = 1.0829
Date    TT    R. A. (2000) Decl.     Delta      r     Elong.  Phase     V
2002 04 06    14 50.66   +05 55.4    2.903    3.799   149.6     7.7    22.7
2002 04 16    14 42.80   +06 41.8    2.838    3.779   156.4     6.1    22.5
2002 04 26    14 33.96   +07 19.3    2.802    3.757   158.7     5.6    22.5
2002 05 06    14 24.77   +07 44.3    2.796    3.734   155.0     6.6    22.5
2002 05 16    14 15.86   +07 54.3    2.818    3.711   147.4     8.4    22.6
2002 05 26    14 07.88   +07 48.3    2.867    3.685   138.3    10.5    22.7

Timothy B. Spahr             (C) Copyright 2002 MPC           M.P.E.C. 2002-G47

Read MPEC 2002-G46 Read MPEC 2002-G48


Our Web policy. Index to the CBAT/MPC/ICQ pages.


Valid HTML 4.01!